GLD1620 MDPP-MYNN

Flight info

Callsign GLD1620
Flight time 1h 37m
Altitude 38000
Route MALVN Y396 BITAC DCT
Aircraft A20N/M-SDE2E3FGHIRWXY/LB1

Departure

Time 2026-05-05 23:15
Airport Gregorio Luperon International Airport (MDPP)

Arrival

Time 2026-05-06 00:52
Airport Lynden Pindling International Airport (MYNN)
Time Latitude Longitude Altitude Speed Heading
2026-05-05 22:43 19.75585 -70.56550 46 ft 0 kts 125°
2026-05-05 23:03 19.75597 -70.56567 47 ft 4 kts 126°
2026-05-05 23:04 19.75613 -70.56590 46 ft 4 kts 126°
2026-05-05 23:04 19.75629 -70.56613 45 ft 4 kts 127°
2026-05-05 23:04 19.75645 -70.56635 48 ft 4 kts 129°
2026-05-05 23:04 19.75650 -70.56642 48 ft 0 kts 129°
2026-05-05 23:09 19.75647 -70.56641 48 ft 1 kts 156°
2026-05-05 23:10 19.75644 -70.56644 48 ft 1 kts 201°
2026-05-05 23:10 19.75628 -70.56683 47 ft 9 kts 256°
2026-05-05 23:10 19.75595 -70.56785 44 ft 19 kts 251°
2026-05-05 23:10 19.75559 -70.56934 43 ft 23 kts 256°
2026-05-05 23:11 19.75571 -70.57092 40 ft 23 kts 314°
2026-05-05 23:11 19.75636 -70.57162 39 ft 0 kts 314°
2026-05-05 23:11 19.75648 -70.57175 38 ft 8 kts 314°
2026-05-05 23:12 19.75698 -70.57249 36 ft 17 kts 290°
2026-05-05 23:12 19.75680 -70.57385 35 ft 21 kts 256°
2026-05-05 23:12 19.75626 -70.57541 33 ft 25 kts 249°
2026-05-05 23:12 19.75570 -70.57726 34 ft 27 kts 256°
2026-05-05 23:13 19.75518 -70.57927 35 ft 30 kts 254°
2026-05-05 23:13 19.75456 -70.58144 33 ft 32 kts 252°
2026-05-05 23:13 19.75372 -70.58348 32 ft 23 kts 235°
2026-05-05 23:13 19.75361 -70.58393 32 ft 0 kts 287°
2026-05-05 23:14 19.75376 -70.58394 31 ft 3 kts 11°
2026-05-05 23:14 19.75428 -70.58241 34 ft 63 kts 73°
2026-05-05 23:14 19.75648 -70.57489 65 ft 143 kts 74°
2026-05-05 23:14 19.75983 -70.56385 516 ft 174 kts 72°
2026-05-05 23:15 19.76373 -70.55108 964 ft 178 kts 74°
2026-05-05 23:15 19.76747 -70.53868 1261 ft 173 kts 76°
2026-05-05 23:15 19.77084 -70.52594 1378 ft 189 kts 79°
2026-05-05 23:15 19.77504 -70.51198 1739 ft 218 kts 65°
2026-05-05 23:16 19.78610 -70.49976 2405 ft 248 kts 33°
2026-05-05 23:16 19.80332 -70.49437 3150 ft 268 kts
2026-05-05 23:16 19.82198 -70.49468 4222 ft 268 kts 358°
2026-05-05 23:16 19.84054 -70.49434 5077 ft 267 kts
2026-05-05 23:17 19.85902 -70.49182 5548 ft 270 kts
2026-05-05 23:17 19.87738 -70.48747 5810 ft 270 kts 13°
2026-05-05 23:17 19.89554 -70.48212 5960 ft 271 kts 15°
2026-05-05 23:17 19.91364 -70.47645 6017 ft 271 kts 13°
2026-05-05 23:18 19.93240 -70.47346 6215 ft 273 kts
2026-05-05 23:18 19.95130 -70.47271 6897 ft 275 kts
2026-05-05 23:18 19.97044 -70.47261 7887 ft 276 kts 350°
2026-05-05 23:18 19.98886 -70.48021 8785 ft 280 kts 323°
2026-05-05 23:19 20.00190 -70.49554 9649 ft 282 kts 296°
2026-05-05 23:19 20.00720 -70.51538 10517 ft 281 kts 271°
2026-05-05 23:19 20.00756 -70.53665 11136 ft 297 kts 268°
2026-05-05 23:19 20.00720 -70.55960 11496 ft 320 kts 268°
2026-05-05 23:20 20.00707 -70.58390 11835 ft 341 kts 269°
2026-05-05 23:20 20.00741 -70.60948 12610 ft 345 kts 270°
2026-05-05 23:20 20.00801 -70.63496 13518 ft 347 kts 271°
2026-05-05 23:20 20.00874 -70.66079 14270 ft 351 kts 271°
2026-05-05 23:21 20.00952 -70.68675 15051 ft 353 kts 271°
2026-05-05 23:21 20.01029 -70.71262 15789 ft 356 kts 271°
2026-05-05 23:21 20.01108 -70.73894 16568 ft 358 kts 271°
2026-05-05 23:21 20.01186 -70.76553 17324 ft 360 kts 271°
2026-05-05 23:22 20.01263 -70.79199 18082 ft 362 kts 271°
2026-05-05 23:22 20.01341 -70.81883 18739 ft 365 kts 271°
2026-05-05 23:22 20.01418 -70.84607 19276 ft 370 kts 271°
2026-05-05 23:22 20.01495 -70.87328 19827 ft 375 kts 271°
2026-05-05 23:23 20.01573 -70.90108 20387 ft 379 kts 271°
2026-05-05 23:23 20.01651 -70.92929 20942 ft 383 kts 271°
2026-05-05 23:23 20.01729 -70.95764 21487 ft 387 kts 272°
2026-05-05 23:23 20.01808 -70.98654 22034 ft 392 kts 272°
2026-05-05 23:24 20.01886 -71.01553 22580 ft 395 kts 272°
2026-05-05 23:24 20.01966 -71.04491 23109 ft 400 kts 272°
2026-05-05 23:24 20.02049 -71.07463 23640 ft 403 kts 273°
2026-05-05 23:24 20.02494 -71.10414 24098 ft 406 kts 286°
2026-05-05 23:25 20.03562 -71.13145 24586 ft 408 kts 299°
2026-05-05 23:25 20.05256 -71.15613 25046 ft 412 kts 312°
2026-05-05 23:25 20.07431 -71.17568 25500 ft 418 kts 325°
2026-05-05 23:25 20.09939 -71.19162 25949 ft 421 kts 327°
2026-05-05 23:26 20.12465 -71.20747 26394 ft 424 kts 327°
2026-05-05 23:26 20.15009 -71.22349 26829 ft 426 kts 327°
2026-05-05 23:26 20.17558 -71.23960 27252 ft 429 kts 327°
2026-05-05 23:26 20.20135 -71.25591 27674 ft 431 kts 326°
2026-05-05 23:27 20.22471 -71.27071 28065 ft 433 kts 326°
2026-05-05 23:27 20.24970 -71.28655 28444 ft 436 kts 326°
2026-05-05 23:27 20.27425 -71.30212 28811 ft 438 kts 326°
2026-05-05 23:27 20.30036 -71.31868 29200 ft 440 kts 326°
2026-05-05 23:28 20.32658 -71.33532 29609 ft 442 kts 326°
2026-05-05 23:28 20.35326 -71.35226 29973 ft 445 kts 326°
2026-05-05 23:28 20.37978 -71.36929 30312 ft 447 kts 324°
2026-05-05 23:28 20.40494 -71.38865 30662 ft 445 kts 318°
2026-05-05 23:29 20.42792 -71.41073 31014 ft 445 kts 312°
2026-05-05 23:29 20.44851 -71.43516 31428 ft 443 kts 306°
2026-05-05 23:29 20.46755 -71.46094 31886 ft 442 kts 306°
2026-05-05 23:29 20.48661 -71.48654 32369 ft 440 kts 306°
2026-05-05 23:30 20.50569 -71.51206 32853 ft 438 kts 306°
2026-05-05 23:30 20.52456 -71.53733 33309 ft 436 kts 306°
2026-05-05 23:30 20.54345 -71.56266 33746 ft 435 kts 306°
2026-05-05 23:30 20.56225 -71.58789 34167 ft 434 kts 306°
2026-05-05 23:31 20.58097 -71.61305 34563 ft 432 kts 306°
2026-05-05 23:31 20.59933 -71.63774 34942 ft 430 kts 306°
2026-05-05 23:31 20.61815 -71.66307 35318 ft 428 kts 306°
2026-05-05 23:31 20.63657 -71.68786 35692 ft 426 kts 306°
2026-05-05 23:32 20.65495 -71.71262 36055 ft 424 kts 306°
2026-05-05 23:32 20.67301 -71.73696 36410 ft 423 kts 306°
2026-05-05 23:32 20.69148 -71.76186 36759 ft 421 kts 306°
2026-05-05 23:32 20.70937 -71.78598 37094 ft 420 kts 306°
2026-05-05 23:33 20.72772 -71.81075 37430 ft 419 kts 306°
2026-05-05 23:33 20.74551 -71.83476 37735 ft 417 kts 306°
2026-05-05 23:33 20.76353 -71.85909 37942 ft 416 kts 306°
2026-05-05 23:33 20.78151 -71.88339 38007 ft 415 kts 306°
2026-05-05 23:34 20.81694 -71.93129 38011 ft 414 kts 306°
2026-05-05 23:34 20.85259 -71.97953 38012 ft 414 kts 306°
2026-05-05 23:35 20.88798 -72.02747 38007 ft 414 kts 306°
2026-05-05 23:35 20.92360 -72.07577 38007 ft 414 kts 306°
2026-05-05 23:36 20.95927 -72.12415 38010 ft 414 kts 306°
2026-05-05 23:36 20.99490 -72.17254 38015 ft 414 kts 306°
2026-05-05 23:37 21.03056 -72.22100 38011 ft 414 kts 306°
2026-05-05 23:37 21.06614 -72.26939 38013 ft 414 kts 306°
2026-05-05 23:38 21.10178 -72.31792 38014 ft 414 kts 306°
2026-05-05 23:38 21.13732 -72.36634 38016 ft 414 kts 306°
2026-05-05 23:39 21.17296 -72.41493 38015 ft 414 kts 306°
2026-05-05 23:39 21.20874 -72.46376 38020 ft 414 kts 306°
2026-05-05 23:40 21.24386 -72.51173 38018 ft 414 kts 306°
2026-05-05 23:40 21.27913 -72.55994 38020 ft 414 kts 306°
2026-05-05 23:41 21.31459 -72.60846 38021 ft 413 kts 306°
2026-05-05 23:41 21.35023 -72.65727 38025 ft 413 kts 307°
2026-05-05 23:42 21.38542 -72.70551 38025 ft 413 kts 307°
2026-05-05 23:42 21.42073 -72.75394 38027 ft 412 kts 307°
2026-05-05 23:43 21.45605 -72.80245 38028 ft 412 kts 307°
2026-05-05 23:43 21.49125 -72.85082 38021 ft 411 kts 307°
2026-05-05 23:44 21.52642 -72.89920 38019 ft 410 kts 307°
2026-05-05 23:44 21.56143 -72.94739 38033 ft 409 kts 307°
2026-05-05 23:45 21.59647 -72.99568 38023 ft 409 kts 307°
2026-05-05 23:45 21.63144 -73.04389 38024 ft 408 kts 307°
2026-05-05 23:46 21.66623 -73.09193 38021 ft 407 kts 307°
2026-05-05 23:46 21.70079 -73.13966 38027 ft 407 kts 307°
2026-05-05 23:47 21.73546 -73.18761 38029 ft 406 kts 307°
2026-05-05 23:47 21.77005 -73.23548 38031 ft 405 kts 307°
2026-05-05 23:48 21.80461 -73.28336 38025 ft 404 kts 307°
2026-05-05 23:48 21.83907 -73.33113 38029 ft 404 kts 308°
2026-05-05 23:49 21.87317 -73.37845 38029 ft 403 kts 308°
2026-05-05 23:49 21.90743 -73.42603 38026 ft 402 kts 308°
2026-05-05 23:50 21.94171 -73.47368 38025 ft 401 kts 308°
2026-05-05 23:50 21.97581 -73.52112 38028 ft 401 kts 308°
2026-05-05 23:51 22.00987 -73.56855 38029 ft 400 kts 308°
2026-05-05 23:51 22.04334 -73.61520 38023 ft 399 kts 308°
2026-05-05 23:52 22.07777 -73.66322 38026 ft 398 kts 308°
2026-05-05 23:52 22.11151 -73.71032 38024 ft 397 kts 308°
2026-05-05 23:53 22.14510 -73.75726 38025 ft 397 kts 308°
2026-05-05 23:53 22.17861 -73.80414 38026 ft 396 kts 308°
2026-05-05 23:54 22.21209 -73.85100 38024 ft 395 kts 308°
2026-05-05 23:54 22.24584 -73.89828 38025 ft 395 kts 308°
2026-05-05 23:55 22.27362 -73.93724 38023 ft 394 kts 308°
2026-05-05 23:55 22.31243 -73.99170 38026 ft 393 kts 308°
2026-05-05 23:56 22.34574 -74.03850 38023 ft 393 kts 308°
2026-05-05 23:56 22.37364 -74.07772 38026 ft 392 kts 309°
2026-05-05 23:57 22.40683 -74.12442 38023 ft 392 kts 309°
2026-05-05 23:57 22.43978 -74.17082 38028 ft 391 kts 309°
2026-05-05 23:58 22.47276 -74.21731 38026 ft 391 kts 309°
2026-05-05 23:58 22.50574 -74.26383 38029 ft 390 kts 309°
2026-05-05 23:59 22.53890 -74.31065 38033 ft 390 kts 309°
2026-05-05 23:59 22.57181 -74.35716 38022 ft 389 kts 309°
2026-05-06 00:00 22.60469 -74.40368 38031 ft 389 kts 309°
2026-05-06 00:00 22.63750 -74.45012 38022 ft 389 kts 309°
2026-05-06 00:01 22.67035 -74.49668 38030 ft 388 kts 309°
2026-05-06 00:01 22.70300 -74.54297 38028 ft 388 kts 309°
2026-05-06 00:02 22.73597 -74.58979 38027 ft 388 kts 309°
2026-05-06 00:02 22.76867 -74.63624 38030 ft 387 kts 309°
2026-05-06 00:03 22.80096 -74.68216 38026 ft 387 kts 309°
2026-05-06 00:03 22.83364 -74.72867 38033 ft 387 kts 309°
2026-05-06 00:04 22.86624 -74.77512 38022 ft 387 kts 309°
2026-05-06 00:04 22.89887 -74.82163 38033 ft 387 kts 309°
2026-05-06 00:05 22.94768 -74.89131 38029 ft 387 kts 309°
2026-05-06 00:06 22.98043 -74.93810 38028 ft 387 kts 309°
2026-05-06 00:06 23.01275 -74.98431 38026 ft 387 kts 309°
2026-05-06 00:07 23.04522 -75.03076 38028 ft 386 kts 309°
2026-05-06 00:07 23.07768 -75.07723 38032 ft 386 kts 309°
2026-05-06 00:08 23.10999 -75.12360 38021 ft 386 kts 309°
2026-05-06 00:08 23.14263 -75.17055 38029 ft 386 kts 309°
2026-05-06 00:09 23.17459 -75.21648 38032 ft 385 kts 309°
2026-05-06 00:09 23.20711 -75.26323 38025 ft 385 kts 309°
2026-05-06 00:10 23.23915 -75.30936 38029 ft 385 kts 309°
2026-05-06 00:10 23.27163 -75.35616 38029 ft 385 kts 309°
2026-05-06 00:11 23.30364 -75.40234 38023 ft 384 kts 309°
2026-05-06 00:11 23.33599 -75.44903 38028 ft 384 kts 309°
2026-05-06 00:12 23.36811 -75.49544 38022 ft 384 kts 309°
2026-05-06 00:12 23.40001 -75.54158 38023 ft 384 kts 309°
2026-05-06 00:13 23.43181 -75.58763 38022 ft 384 kts 309°
2026-05-06 00:13 23.46367 -75.63378 38007 ft 383 kts 309°
2026-05-06 00:14 23.49569 -75.68022 38023 ft 383 kts 308°
2026-05-06 00:14 23.52771 -75.72670 38022 ft 383 kts 308°
2026-05-06 00:15 23.55965 -75.77311 38027 ft 383 kts 308°
2026-05-06 00:15 23.59181 -75.81988 38016 ft 383 kts 308°
2026-05-06 00:16 23.62356 -75.86609 38026 ft 383 kts 308°
2026-05-06 00:16 23.65543 -75.91253 38036 ft 383 kts 308°
2026-05-06 00:17 23.68755 -75.95937 38023 ft 383 kts 308°
2026-05-06 00:17 23.71922 -76.00561 37966 ft 374 kts 308°
2026-05-06 00:17 23.73464 -76.02814 37702 ft 368 kts 308°
2026-05-06 00:18 23.74989 -76.05043 37139 ft 366 kts 308°
2026-05-06 00:18 23.76506 -76.07260 36545 ft 365 kts 308°
2026-05-06 00:18 23.78018 -76.09470 35993 ft 363 kts 308°
2026-05-06 00:18 23.79527 -76.11677 35461 ft 361 kts 308°
2026-05-06 00:19 23.81020 -76.13861 34941 ft 359 kts 308°
2026-05-06 00:19 23.82503 -76.16032 34428 ft 357 kts 308°
2026-05-06 00:19 23.84007 -76.18236 33905 ft 356 kts 308°
2026-05-06 00:19 23.85481 -76.20395 33359 ft 354 kts 307°
2026-05-06 00:20 23.86947 -76.22543 32839 ft 351 kts 307°
2026-05-06 00:20 23.88402 -76.24676 32324 ft 349 kts 307°
2026-05-06 00:20 23.89849 -76.26798 31820 ft 347 kts 307°
2026-05-06 00:20 23.91285 -76.28905 31323 ft 345 kts 307°
2026-05-06 00:21 23.92720 -76.31010 30826 ft 344 kts 306°
2026-05-06 00:21 23.94144 -76.33102 30343 ft 342 kts 306°
2026-05-06 00:21 23.95560 -76.35183 29830 ft 340 kts 306°
2026-05-06 00:21 23.96965 -76.37249 29323 ft 338 kts 306°
2026-05-06 00:22 23.98342 -76.39277 28821 ft 335 kts 306°
2026-05-06 00:22 23.99744 -76.41341 28318 ft 333 kts 306°
2026-05-06 00:22 24.01122 -76.43371 27824 ft 331 kts 306°
2026-05-06 00:22 24.02504 -76.45406 27346 ft 329 kts 306°
2026-05-06 00:23 24.03850 -76.47390 26875 ft 327 kts 306°
2026-05-06 00:23 24.05200 -76.49381 26406 ft 325 kts 306°
2026-05-06 00:23 24.06545 -76.51364 25954 ft 323 kts 306°
2026-05-06 00:23 24.07880 -76.53335 25504 ft 322 kts 305°
2026-05-06 00:24 24.09212 -76.55301 25065 ft 320 kts 305°
2026-05-06 00:24 24.10533 -76.57252 24645 ft 319 kts 305°
2026-05-06 00:24 24.11849 -76.59196 24214 ft 317 kts 305°
2026-05-06 00:24 24.13178 -76.61162 23789 ft 316 kts 305°
2026-05-06 00:25 24.14484 -76.63093 23351 ft 314 kts 305°
2026-05-06 00:25 24.15779 -76.65009 22861 ft 313 kts 305°
2026-05-06 00:25 24.17054 -76.66898 22395 ft 312 kts 305°
2026-05-06 00:25 24.18339 -76.68801 21926 ft 311 kts 305°
2026-05-06 00:26 24.19624 -76.70706 21465 ft 310 kts 305°
2026-05-06 00:26 24.20910 -76.72611 21017 ft 309 kts 305°
2026-05-06 00:26 24.22189 -76.74507 20576 ft 309 kts 305°
2026-05-06 00:26 24.23459 -76.76390 20145 ft 308 kts 305°
2026-05-06 00:27 24.24731 -76.78278 19719 ft 307 kts 305°
2026-05-06 00:27 24.25996 -76.80156 19308 ft 306 kts 305°
2026-05-06 00:27 24.27258 -76.82030 18901 ft 306 kts 305°
2026-05-06 00:27 24.28523 -76.83909 18485 ft 305 kts 305°
2026-05-06 00:28 24.29784 -76.85783 18066 ft 304 kts 305°
2026-05-06 00:28 24.31034 -76.87639 17684 ft 301 kts 305°
2026-05-06 00:28 24.32271 -76.89477 17279 ft 299 kts 305°
2026-05-06 00:28 24.33501 -76.91306 16885 ft 297 kts 305°
2026-05-06 00:29 24.34724 -76.93125 16491 ft 295 kts 304°
2026-05-06 00:29 24.35942 -76.94936 16103 ft 293 kts 304°
2026-05-06 00:29 24.37127 -76.96700 15731 ft 291 kts 304°
2026-05-06 00:29 24.38336 -76.98501 15343 ft 289 kts 304°
2026-05-06 00:30 24.39526 -77.00274 14979 ft 287 kts 304°
2026-05-06 00:30 24.40693 -77.02013 14614 ft 285 kts 304°
2026-05-06 00:30 24.41851 -77.03740 14252 ft 284 kts 304°
2026-05-06 00:30 24.43029 -77.05496 13892 ft 282 kts 303°
2026-05-06 00:31 24.44182 -77.07215 13499 ft 280 kts 303°
2026-05-06 00:31 24.45334 -77.08936 13088 ft 279 kts 303°
2026-05-06 00:31 24.46479 -77.10647 12687 ft 277 kts 303°
2026-05-06 00:31 24.47618 -77.12348 12291 ft 276 kts 303°
2026-05-06 00:32 24.48749 -77.14038 11895 ft 275 kts 303°
2026-05-06 00:32 24.49882 -77.15732 11521 ft 273 kts 303°
2026-05-06 00:32 24.51002 -77.17405 11145 ft 272 kts 303°
2026-05-06 00:32 24.52116 -77.19071 10789 ft 270 kts 304°
2026-05-06 00:33 24.53225 -77.20731 10426 ft 269 kts 303°
2026-05-06 00:33 24.54331 -77.22386 10069 ft 267 kts 304°
2026-05-06 00:33 24.55410 -77.24001 9701 ft 266 kts 304°
2026-05-06 00:33 24.56503 -77.25639 9288 ft 265 kts 304°
2026-05-06 00:34 24.57590 -77.27267 8886 ft 264 kts 304°
2026-05-06 00:34 24.58674 -77.28893 8489 ft 263 kts 304°
2026-05-06 00:34 24.59783 -77.30557 8084 ft 263 kts 304°
2026-05-06 00:34 24.60844 -77.32150 7718 ft 262 kts 304°
2026-05-06 00:35 24.61922 -77.33770 7345 ft 261 kts 304°
2026-05-06 00:35 24.62985 -77.35366 6981 ft 260 kts 304°
2026-05-06 00:35 24.64056 -77.36973 6620 ft 259 kts 304°
2026-05-06 00:35 24.65110 -77.38556 6245 ft 258 kts 304°
2026-05-06 00:36 24.66168 -77.40145 5864 ft 258 kts 305°
2026-05-06 00:36 24.67219 -77.41724 5490 ft 257 kts 304°
2026-05-06 00:36 24.67918 -77.42775 5245 ft 257 kts 305°
2026-05-06 00:36 24.69315 -77.44876 5019 ft 258 kts 305°
2026-05-06 00:37 24.70362 -77.46449 4985 ft 257 kts 305°
2026-05-06 00:37 24.71415 -77.48031 4985 ft 257 kts 305°
2026-05-06 00:37 24.72470 -77.49618 4986 ft 257 kts 305°
2026-05-06 00:37 24.73526 -77.51208 4989 ft 257 kts 305°
2026-05-06 00:38 24.74605 -77.52775 4987 ft 257 kts 312°
2026-05-06 00:38 24.75524 -77.53608 4992 ft 259 kts 326°
2026-05-06 00:38 24.77169 -77.54386 4987 ft 261 kts 341°
2026-05-06 00:38 24.78916 -77.54971 4987 ft 261 kts 341°
2026-05-06 00:39 24.80649 -77.55547 4986 ft 261 kts 341°
2026-05-06 00:39 24.82391 -77.56127 4993 ft 261 kts 341°
2026-05-06 00:39 24.84132 -77.56705 4994 ft 261 kts 341°
2026-05-06 00:39 24.85868 -77.57279 4993 ft 261 kts 341°
2026-05-06 00:40 24.87610 -77.57858 4995 ft 261 kts 341°
2026-05-06 00:40 24.89348 -77.58435 4993 ft 261 kts 341°
2026-05-06 00:40 24.91084 -77.59012 4993 ft 261 kts 341°
2026-05-06 00:40 24.92829 -77.59590 4994 ft 261 kts 341°
2026-05-06 00:41 24.94565 -77.60166 4996 ft 261 kts 341°
2026-05-06 00:41 24.96288 -77.60740 4994 ft 261 kts 341°
2026-05-06 00:41 24.98041 -77.61325 4995 ft 261 kts 341°
2026-05-06 00:41 24.99798 -77.61910 4870 ft 259 kts 341°
2026-05-06 00:42 25.01509 -77.62485 4565 ft 258 kts 341°
2026-05-06 00:42 25.03232 -77.63069 4209 ft 257 kts 341°
2026-05-06 00:42 25.04919 -77.63642 3845 ft 257 kts 341°
2026-05-06 00:42 25.06663 -77.64238 3488 ft 256 kts 341°
2026-05-06 00:43 25.08364 -77.64824 3164 ft 255 kts 341°
2026-05-06 00:43 25.10046 -77.65409 2835 ft 253 kts 341°
2026-05-06 00:43 25.11704 -77.65990 2513 ft 252 kts 341°
2026-05-06 00:43 25.13370 -77.66594 2184 ft 251 kts 335°
2026-05-06 00:44 25.14801 -77.67632 2028 ft 248 kts 321°
2026-05-06 00:44 25.16158 -77.68789 1993 ft 240 kts 321°
2026-05-06 00:44 25.17425 -77.69867 1992 ft 221 kts 321°
2026-05-06 00:44 25.18602 -77.70866 1992 ft 206 kts 321°
2026-05-06 00:45 25.19743 -77.71834 1994 ft 210 kts 321°
2026-05-06 00:45 25.20992 -77.72561 1995 ft 209 kts 348°
2026-05-06 00:45 25.22432 -77.72404 1995 ft 212 kts 24°
2026-05-06 00:45 25.23536 -77.71360 1989 ft 210 kts 59°
2026-05-06 00:46 25.23865 -77.69893 2007 ft 192 kts 96°
2026-05-06 00:46 25.23325 -77.68580 2003 ft 194 kts 131°
2026-05-06 00:46 25.22417 -77.67503 1988 ft 189 kts 134°
2026-05-06 00:46 25.21519 -77.66450 1987 ft 186 kts 134°
2026-05-06 00:47 25.20684 -77.65469 1989 ft 164 kts 134°
2026-05-06 00:47 25.19966 -77.64614 1998 ft 150 kts 134°
2026-05-06 00:47 25.19250 -77.63762 1998 ft 149 kts 134°
2026-05-06 00:47 25.18543 -77.62920 1998 ft 151 kts 134°
2026-05-06 00:48 25.17838 -77.62084 1998 ft 150 kts 134°
2026-05-06 00:48 25.17130 -77.61240 1994 ft 150 kts 134°
2026-05-06 00:48 25.16423 -77.60404 1997 ft 150 kts 134°
2026-05-06 00:48 25.15710 -77.59561 1997 ft 151 kts 134°
2026-05-06 00:49 25.14986 -77.58725 1998 ft 149 kts 136°
2026-05-06 00:49 25.14308 -77.57871 1994 ft 150 kts 131°
2026-05-06 00:49 25.13619 -77.57003 2001 ft 150 kts 134°
2026-05-06 00:49 25.12894 -77.56173 1996 ft 150 kts 136°
2026-05-06 00:50 25.12154 -77.55346 1921 ft 151 kts 136°
2026-05-06 00:50 25.11418 -77.54526 1738 ft 158 kts 136°
2026-05-06 00:50 25.10568 -77.53578 1508 ft 182 kts 135°
2026-05-06 00:50 25.09665 -77.52569 1270 ft 184 kts 136°
2026-05-06 00:51 25.08765 -77.51566 1029 ft 183 kts 136°
2026-05-06 00:51 25.07879 -77.50574 801 ft 182 kts 136°
2026-05-06 00:51 25.06981 -77.49570 575 ft 180 kts 136°
2026-05-06 00:51 25.06104 -77.48594 323 ft 180 kts 136°
2026-05-06 00:52 25.05229 -77.47615 85 ft 178 kts 136°
2026-05-06 00:52 25.04409 -77.46710 22 ft 138 kts 135°
2026-05-06 00:52 25.03949 -77.46200 22 ft 51 kts 135°
2026-05-06 00:52 25.03872 -77.46116 25 ft 3 kts 135°
2026-05-06 00:53 25.03838 -77.46078 25 ft 10 kts 134°
2026-05-06 00:53 25.03770 -77.45994 27 ft 18 kts 117°
2026-05-06 00:53 25.03819 -77.45880 22 ft 15 kts 46°
2026-05-06 00:53 25.03827 -77.45871 23 ft 0 kts 46°
2026-05-06 00:55 25.03873 -77.45862 22 ft 13 kts 340°
2026-05-06 00:55 25.03948 -77.45938 23 ft 17 kts 320°
2026-05-06 00:56 25.04044 -77.46042 23 ft 21 kts 315°
2026-05-06 00:56 25.04156 -77.46167 23 ft 24 kts 316°
2026-05-06 00:56 25.04285 -77.46303 23 ft 27 kts 314°
2026-05-06 00:56 25.04422 -77.46458 22 ft 28 kts 313°
2026-05-06 00:57 25.04544 -77.46548 23 ft 13 kts 25°
2026-05-06 00:57 25.04632 -77.46510 25 ft 15 kts 356°
2026-05-06 00:57 25.04669 -77.46581 25 ft 13 kts 282°
2026-05-06 00:57 25.04723 -77.46664 24 ft 10 kts 322°
2026-05-06 00:58 25.04789 -77.46654 22 ft 12 kts 13°
2026-05-06 00:58 25.04825 -77.46655 22 ft 2 kts 324°
2026-05-06 00:58 25.04852 -77.46674 22 ft 0 kts 328°